Header for Extended Forecast Station List Page

Search by: ID | Name | Date | Parm | Value | Avg | % Avg
Sort by: ID | Name | Date | Parm | Value | Avg | % Avg

Enter search or view all records.

Click on id for station plot
#IDNameDateParmValueAvg% Avg
0BULO3BULLY CREEK-BULLY CREEK DAM02-20-2018INFLOW (KAF)88104
1MYKO3MCKAY CREEK-NEAR PILOT ROCK02-20-2018DISCHARGE (KAF)5035141
2RIDI1WILLOW CREEK-RIRIE DAM02-20-2018INFLOW (KAF)304370
3BERO3MALHEUR-AGENCY VALLEY DAM02-20-2018INFLOW (KAF)335263
4VALO3MALHEUR-NEAR VALE02-20-2018DISCHARGE (KAF)376161
5LWRI1LITTLE WOOD-LITTLE WOOD DAM02-20-2018INFLOW (KAF)466867
6WRMO3MALHEUR-WARM SPRINGS DAM02-20-2018INFLOW (KAF)467066
7DLGM8CLARK FORK-AT DEER LODGE02-20-2018DISCHARGE (KAF)818299
8GIBO3UMATILLA-NEAR GIBBON02-20-2018DISCHARGE (KAF)9683116
9BUDW1BUMPING-BUMPING LAKE DAM02-20-2018INFLOW (KAF)11195116
10EASW1YAKIMA-AT EASTON02-20-2018DISCHARGE (KAF)11699117
11KADW1KACHESS-KACHESS DAM02-20-2018INFLOW (KAF)102100102
12PIHI1PORTNEUF-AT POCATELLO02-20-2018DISCHARGE (KAF)7610076
13HWRI1BIG LOST-AT HOWELL RANCH NEAR CHILLY02-20-2018DISCHARGE (KAF)115102113
14MACI1BIG LOST-MACKAY RESERVOIR NEAR MACKAY02-20-2018INFLOW (KAF)10010496
15KEDW1YAKIMA-KEECHELUS LAKE02-20-2018INFLOW (KAF)118106112
16DEDI1DEADWOOD-NEAR LOWMAN02-20-2018INFLOW (KAF)10610899
17TNAW1TEANAWAY-BELOW FORKS02-20-2018DISCHARGE (KAF)164132124
18ARDW1ENTIAT-NEAR ARDENVOIR02-20-2018DISCHARGE (KAF)167143117
19UMAO3UMATILLA-NEAR UMATILLA02-20-2018DISCHARGE (KAF)198144137
20SATI1ST MARIES-NEAR SANTA02-20-2018DISCHARGE (KAF)168150112
21RILW1TIETON-RIMROCK LAKE NEAR RIMROCK02-20-2018INFLOW (KAF)176157112
22HALI1BIG WOOD-AT HAILEY02-20-2018DISCHARGE (KAF)183166110
23HOTI1BRUNEAU-NEAR HOT SPRINGS02-20-2018DISCHARGE (KAF)10516863
24IPDI1HENRYS FORK-ISLAND PARK DAM02-20-2018INFLOW (KAF)209179117
25PDTO3UMATILLA-AT PENDLETON02-20-2018DISCHARGE (KAF)217185118
26TCHW1WALLA WALLA-NEAR TOUCHET02-20-2018DISCHARGE (KAF)241187129
27RCCM8ROCK CREEK-NEAR CLINTON02-20-2018DISCHARGE (KAF)277193143
28MAGI1BIG WOOD-MAGIC DAM02-20-2018INFLOW (KAF)17321281
29STRM8ST. REGIS-NEAR ST. REGIS02-20-2018DISCHARGE (KAF)297237125
30TEAI1TETON-NEAR ST. ANTHONY02-20-2018DISCHARGE (KAF)292256114
31HODO3HOOD-NEAR TUCKER BRIDGE02-20-2018DISCHARGE (KAF)26427098
32CHEI1FALL RIVER-NEAR CHESTER02-20-2018DISCHARGE (KAF)341291117
33CLUW1CLE ELUM-CLE ELUM LAKE02-20-2018INFLOW (KAF)337319106
34CLFW1NACHES-NEAR CLIFFDEL02-20-2018DISCHARGE (KAF)371321115
35BIGI1BOISE-AT GLENWOOD BRIDGE02-20-2018DISCHARGE (KAF)32935593
36UNDW1WHITE SALMON-NEAR UNDERWOOD02-20-2018DISCHARGE (KAF)34835598
37OWYO3OWYHEE-OWYHEE DAM02-20-2018INFLOW (KAF)20336056
38NACW1NACHES-NEAR NACHES02-20-2018DISCHARGE (KAF)576411140
39PARI1BOISE-NEAR PARMA02-20-2018DISCHARGE (KAF)36541987
40WSRI1WEISER-NEAR WEISER02-20-2018DISCHARGE (KAF)35043680
41ARAI1SF BOISE-ANDERSON RANCH DAM02-20-2018INFLOW (KAF)37744585
42CSDI1NF PAYETTE-CASCADE DAM02-20-2018INFLOW (KAF)42245593
43PITW1KLICKITAT-NEAR PITT02-20-2018DISCHARGE (KAF)52052998
44JLKW4SNAKE-JACKSON LAKE AT DAM02-20-2018INFLOW (KAF)740543136
45ANTI1HENRYS FORK-AT ST. ANTHONY02-20-2018DISCHARGE (KAF)690602115
46MONO3NF JOHN DAY-AT MONUMENT02-20-2018DISCHARGE (KAF)46662575
47UMTW1YAKIMA-AT UMTANUM02-20-2018DISCHARGE (KAF)709634112
48MILI1SNAKE-AT MILNER02-20-2018DISCHARGE (KAF)1043634164
49PARW1YAKIMA-NEAR PARKER02-20-2018DISCHARGE (KAF)777636122
50BONM8BLACKFOOT-NEAR BONNER02-20-2018DISCHARGE (KAF)1108638174
51PATW1METHOW-NEAR PATEROS02-20-2018DISCHARGE (KAF)807651124
52REXI1HENRYS FORK-AT REXBURG02-20-2018DISCHARGE (KAF)790704112
53PRTI1PRIEST-NEAR PRIEST RIVER02-20-2018DISCHARGE (KAF)782716109
54CHDW1CHELAN-LAKE CHELAN DAM02-20-2018INFLOW (KAF)770718107
55SERO3JOHN DAY-AT SERVICE CK02-20-2018DISCHARGE (KAF)62489969
56BITM8BITTERROOT-NEAR MISSOULA02-20-2018DISCHARGE (KAF)1203960125
57JKSW4SNAKE-NEAR JACKSON02-20-2018DISCHARGE (KAF)1410989143
58KIOW1YAKIMA-AT KIONA02-20-2018DISCHARGE (KAF)10271016101
59PESW1WENATCHEE-AT PESHASTIN02-20-2018DISCHARGE (KAF)11841097108
60EMMI1PAYETTE-NEAR EMMETT02-20-2018DISCHARGE (KAF)1031112392
61WGCM8MF FLATHEAD-NEAR WEST GLACIER02-20-2018DISCHARGE (KAF)14711156127
62ABOM8CLARK FORK-ABOVE MISSOULA02-20-2018DISCHARGE (KAF)17381162150
63TONW1OKANOGAN-NEAR TONASKET02-20-2018DISCHARGE (KAF)13191167113
64FCFM8NF FLATHEAD-NEAR COLUMBIA FALLS02-20-2018DISCHARGE (KAF)14231184120
65TRYO3GRANDE RONDE-TROY02-20-2018DISCHARGE (KAF)1214123598
66ALPW4SNAKE-NEAR ALPINE02-20-2018DISCHARGE (KAF)17781302137
67LAUW1KETTLE-AT LAURIER02-20-2018DISCHARGE (KAF)14681463100
68MODO3DESCHUTES-AT MOODY NR BIGGS02-20-2018DISCHARGE (KAF)1447152795
69HHWM8SF FLATHEAD-HUNGRY HORSE DAM02-20-2018INFLOW (KAF)20261543131
70BFTI1SNAKE-NEAR BLACKFOOT02-20-2018DISCHARGE (KAF)26021642158
71SNAI1SNAKE-AT BLACKFOOT02-20-2018DISCHARGE (KAF)26211666157
72SHYI1SNAKE-NEAR SHELLEY02-20-2018DISCHARGE (KAF)29211927152
73HEII1SNAKE-NEAR HEISE02-20-2018DISCHARGE (KAF)29881941154
74SIFI1SNAKE-AB EAGLE ROCK NR IDAHO FALLS02-20-2018DISCHARGE (KAF)30431947156
75PLDI1SF SNAKE-PALISADES DAM02-20-2018INFLOW (KAF)25502000128
76BELM8CLARK FORK-BELOW MISSOULA02-20-2018DISCHARGE (KAF)29412146137
77AFRI1SNAKE-AMERICAN FALLS RESERVOIR02-20-2018INFLOW (KAF)31862311138
78DWRI1NF CLEARWATER-DWORSHAK DAM02-20-2018INFLOW (KAF)31052572121
79SWAI1SNAKE-BELOW SWAN FALLS02-20-2018DISCHARGE (KAF)28462671107
80COEI1COEUR D ALENE-COEUR D ALENE LAKE02-20-2018INFLOW (KAF)31922816113
81SRGM8CLARK FORK-AT ST REGIS02-20-2018DISCHARGE (KAF)37992917130
82CFMM8FLATHEAD-AT COLUMBIA FALLS02-20-2018DISCHARGE (KAF)43803264134
83LLKW1SPOKANE-AT LONGLAKE02-20-2018INFLOW (KAF)34823388103
84LYDM8KOOTENAI-LIBBY DAM02-20-2018INFLOW (KAF)38603756103
85LEOI1KOOTENAI-AT LEONIA02-20-2018DISCHARGE (KAF)43403819114
86KERM8FLATHEAD-KERR DAM02-20-2018INFLOW (KAF)52044129126
87ORFI1CLEARWATER-AT OROFINO02-20-2018DISCHARGE (KAF)49154141119
88WHBI1SALMON-AT WHITEBIRD02-20-2018DISCHARGE (KAF)48334483108
89WEII1SNAKE-AT WEISER02-20-2018DISCHARGE (KAF)4891534991
90BRNI1SNAKE-BROWNLEE DAM02-20-2018INFLOW (KAF)5331578792
91SPDI1CLEARWATER-AT SPALDING02-20-2018DISCHARGE (KAF)73086451113
92NOXM8CLARK FORK-NOXON RAPIDS DAM02-20-2018INFLOW (KAF)87977509117
93CABI1CLARK FORK-CABINET GORGE DAM02-20-2018INFLOW (KAF)97057879123
94ALFW1PEND OREILLE-ALBENI FALLS DAM02-20-2018INFLOW (KAF)111359496117
95ANAW1SNAKE-NEAR ANATONE02-20-2018DISCHARGE (KAF)110891251089
96LGDW1SNAKE-LOWER GRANITE DAM02-20-2018INFLOW (KAF)183961896297
97LGSW1SNAKE-LITTLE GOOSE DAM02-20-2018INFLOW (KAF)183961899597
98IHDW1SNAKE-ICE HARBOR DAM02-20-2018INFLOW (KAF)188061907999
99LMNW1SNAKE-LOWER MONUMENTAL DAM02-20-2018INFLOW (KAF)188061920298
100CHJW1COLUMBIA-CHIEF JOSEPH DAM02-20-2018INFLOW (KAF)2976727850107
101WELW1COLUMBIA-WELLS DAM02-20-2018INFLOW (KAF)3187329772107
102RRHW1COLUMBIA-ROCKY REACH DAM02-20-2018INFLOW (KAF)3240130207107
103GCDW1COLUMBIA-GRAND COULEE DAM02-20-2018INFLOW (KAF)3143930835102
104WANW1COLUMBIA-WANAPUM DAM02-20-2018INFLOW (KAF)3357532392104
105PRWW1COLUMBIA-PRIEST RAPIDS DAM02-20-2018INFLOW (KAF)3357132971102
106MCDW1COLUMBIA-MCNARY DAM02-20-2018INFLOW (KAF)535715416999
107TDAO3COLUMBIA-THE DALLES DAM02-20-2018INFLOW (KAF)5613054215104
108BONO3COLUMBIA-BONNEVILLE DAM02-20-2018INFLOW (KAF)5725456473101
109JDAO3COLUMBIA-JOHN DAY DAM02-20-2018INFLOW (KAF)556915674598
110BFEI1KOOTENAI-AT BONNERS FERRY02-20-2018STAGE (FT)MMM
111DRMM8CLARK FORK-NR DRUMMOND02-20-2018DISCHARGE (KAF)293MM
112HOPI1PEND OREILLE-PEND OREILLE LAKE NR HOPE02-20-2018LAKE ELEVATION (FT)MMM
113SPOW1SPOKANE-AT SPOKANE02-20-2018DISCHARGE (KAF)3152MM
114SJMI1ST JOE-AT ST MARIES02-20-2018STAGE (FT)MMM
115CIBW1COLUMBIA-AT INTL BOUNDARY02-20-2018DISCHARGE (KAF)26368MM
116LUCI1BOISE-LUCKY PEAK DAM02-20-2018INFLOW (KAF)892MM